KLM50W EGLC-EHAM

Flight info

Callsign KLM50W
Flight time 0h 40m
Altitude 21000
Route ODUKU M84 CLN P44 RATLO M197 REDFA
Aircraft E190/M-SDE3GILORVW/S

Departure

Time 2026-05-06 10:59
Airport London City Airport (EGLC)

Arrival

Time 2026-05-06 11:40
Airport Amsterdam Airport Schiphol (EHAM)
Time Latitude Longitude Altitude Speed Heading
2026-05-06 10:30 51.50440 0.04752 28 ft 0 kts 307°
2026-05-06 10:53 51.50442 0.04748 28 ft 2 kts 308°
2026-05-06 10:54 51.50449 0.04745 28 ft 1 kts 351°
2026-05-06 10:54 51.50461 0.04753 28 ft 3 kts 27°
2026-05-06 10:54 51.50468 0.04798 28 ft 6 kts 90°
2026-05-06 10:54 51.50466 0.04894 28 ft 11 kts 91°
2026-05-06 10:55 51.50462 0.05004 28 ft 11 kts 93°
2026-05-06 10:55 51.50451 0.05151 28 ft 16 kts 92°
2026-05-06 10:55 51.50447 0.05299 28 ft 14 kts 93°
2026-05-06 10:55 51.50442 0.05440 29 ft 14 kts 95°
2026-05-06 10:56 51.50438 0.05586 29 ft 12 kts 92°
2026-05-06 10:56 51.50435 0.05711 29 ft 13 kts 90°
2026-05-06 10:56 51.50428 0.05874 29 ft 15 kts 93°
2026-05-06 10:56 51.50424 0.06022 29 ft 14 kts 95°
2026-05-06 10:57 51.50421 0.06151 29 ft 13 kts 90°
2026-05-06 10:57 51.50415 0.06297 29 ft 13 kts 98°
2026-05-06 10:57 51.50411 0.06420 29 ft 10 kts 92°
2026-05-06 10:57 51.50408 0.06524 29 ft 8 kts 92°
2026-05-06 10:58 51.50439 0.06581 29 ft 8 kts 17°
2026-05-06 10:58 51.50490 0.06577 29 ft 2 kts 321°
2026-05-06 10:58 51.50491 0.06537 29 ft 10 kts 274°
2026-05-06 10:58 51.50509 0.05994 29 ft 89 kts 274°
2026-05-06 10:59 51.50547 0.04596 42 ft 157 kts 277°
2026-05-06 10:59 51.50595 0.02713 590 ft 187 kts 277°
2026-05-06 10:59 51.50686 0.00520 1434 ft 209 kts 279°
2026-05-06 10:59 51.51211 -0.01604 2525 ft 208 kts 311°
2026-05-06 11:00 51.52394 -0.02864 2865 ft 207 kts 349°
2026-05-06 11:00 51.53774 -0.02654 3112 ft 203 kts 19°
2026-05-06 11:00 51.55110 -0.01789 3105 ft 210 kts 24°
2026-05-06 11:00 51.56420 -0.00684 2816 ft 216 kts 37°
2026-05-06 11:01 51.57355 0.01074 3026 ft 201 kts 60°
2026-05-06 11:01 51.57924 0.03203 3559 ft 219 kts 66°
2026-05-06 11:01 51.58512 0.05567 4237 ft 237 kts 68°
2026-05-06 11:01 51.59122 0.08136 4949 ft 252 kts 69°
2026-05-06 11:02 51.59726 0.10776 5794 ft 260 kts 69°
2026-05-06 11:02 51.60349 0.13557 6614 ft 267 kts 70°
2026-05-06 11:02 51.60979 0.16391 7424 ft 271 kts 70°
2026-05-06 11:02 51.61617 0.19283 8240 ft 276 kts 70°
2026-05-06 11:03 51.62262 0.22217 9085 ft 282 kts 70°
2026-05-06 11:03 51.62921 0.25220 9963 ft 287 kts 70°
2026-05-06 11:03 51.63598 0.28338 10450 ft 306 kts 70°
2026-05-06 11:03 51.64307 0.31687 10892 ft 325 kts 70°
2026-05-06 11:04 51.65051 0.35225 11394 ft 340 kts 71°
2026-05-06 11:04 51.65817 0.38858 12236 ft 345 kts 70°
2026-05-06 11:04 51.66595 0.42535 13195 ft 348 kts 71°
2026-05-06 11:04 51.67365 0.46196 14126 ft 351 kts 71°
2026-05-06 11:05 51.68149 0.49954 14993 ft 356 kts 71°
2026-05-06 11:05 51.68937 0.53769 15834 ft 362 kts 71°
2026-05-06 11:05 51.69730 0.57640 16652 ft 367 kts 72°
2026-05-06 11:05 51.70532 0.61585 17467 ft 372 kts 72°
2026-05-06 11:06 51.71338 0.65588 18286 ft 378 kts 72°
2026-05-06 11:06 51.72148 0.69644 18995 ft 382 kts 73°
2026-05-06 11:06 51.72965 0.73766 19707 ft 387 kts 73°
2026-05-06 11:06 51.73915 0.77856 20389 ft 393 kts 67°
2026-05-06 11:07 51.75088 0.81886 20947 ft 400 kts 65°
2026-05-06 11:07 51.76288 0.85859 20964 ft 384 kts 65°
2026-05-06 11:07 51.77449 0.89727 20985 ft 391 kts 65°
2026-05-06 11:07 51.78650 0.93755 20992 ft 402 kts 65°
2026-05-06 11:08 51.79858 0.97813 21002 ft 408 kts 65°
2026-05-06 11:08 51.81091 1.01965 21012 ft 411 kts 65°
2026-05-06 11:08 51.82328 1.06138 21018 ft 413 kts 65°
2026-05-06 11:08 51.83571 1.10339 20961 ft 414 kts 65°
2026-05-06 11:09 51.84810 1.14535 20957 ft 414 kts 65°
2026-05-06 11:09 51.86008 1.18768 20970 ft 414 kts 67°
2026-05-06 11:09 51.87140 1.23061 20963 ft 414 kts 68°
2026-05-06 11:09 51.88274 1.27347 20958 ft 414 kts 68°
2026-05-06 11:10 51.89415 1.31631 20959 ft 415 kts 68°
2026-05-06 11:10 51.90558 1.35915 20948 ft 415 kts 67°
2026-05-06 11:10 51.91701 1.40206 20960 ft 415 kts 67°
2026-05-06 11:10 51.92844 1.44502 20963 ft 415 kts 68°
2026-05-06 11:11 51.93987 1.48805 20966 ft 415 kts 67°
2026-05-06 11:11 51.95130 1.53110 20949 ft 416 kts 68°
2026-05-06 11:11 51.96257 1.57362 20947 ft 416 kts 67°
2026-05-06 11:11 51.97398 1.61676 20943 ft 417 kts 68°
2026-05-06 11:12 51.98539 1.66003 20951 ft 416 kts 68°
2026-05-06 11:12 51.99478 1.70435 20969 ft 416 kts 75°
2026-05-06 11:12 52.00207 1.74975 20965 ft 415 kts 77°
2026-05-06 11:12 52.00897 1.79493 20945 ft 404 kts 77°
2026-05-06 11:13 52.01570 1.83858 20935 ft 394 kts 77°
2026-05-06 11:13 52.02234 1.88170 20939 ft 392 kts 77°
2026-05-06 11:13 52.02891 1.92445 20961 ft 391 kts 77°
2026-05-06 11:13 52.03551 1.96733 20956 ft 390 kts 77°
2026-05-06 11:14 52.04209 2.01017 20955 ft 390 kts 77°
2026-05-06 11:14 52.04859 2.05245 20958 ft 390 kts 77°
2026-05-06 11:14 52.05513 2.09518 20956 ft 390 kts 77°
2026-05-06 11:14 52.06167 2.13802 20955 ft 390 kts 77°
2026-05-06 11:15 52.06820 2.18088 20960 ft 391 kts 77°
2026-05-06 11:15 52.07470 2.22371 20957 ft 391 kts 77°
2026-05-06 11:15 52.08119 2.26661 20959 ft 391 kts 77°
2026-05-06 11:15 52.08767 2.30953 20956 ft 391 kts 77°
2026-05-06 11:16 52.09413 2.35242 20949 ft 391 kts 77°
2026-05-06 11:16 52.10060 2.39538 20951 ft 391 kts 77°
2026-05-06 11:16 52.10703 2.43837 20948 ft 391 kts 77°
2026-05-06 11:16 52.11388 2.48115 20964 ft 391 kts 72°
2026-05-06 11:17 52.12563 2.52117 20953 ft 393 kts 61°
2026-05-06 11:17 52.13970 2.55934 20960 ft 393 kts 59°
2026-05-06 11:17 52.15388 2.59749 20943 ft 394 kts 59°
2026-05-06 11:17 52.16789 2.63579 20940 ft 393 kts 60°
2026-05-06 11:18 52.18187 2.67415 20937 ft 394 kts 60°
2026-05-06 11:18 52.19583 2.71257 20942 ft 394 kts 60°
2026-05-06 11:18 52.20969 2.75101 20939 ft 394 kts 60°
2026-05-06 11:18 52.22357 2.78952 20947 ft 393 kts 60°
2026-05-06 11:19 52.23745 2.82812 20940 ft 394 kts 60°
2026-05-06 11:19 52.25129 2.86672 20941 ft 394 kts 60°
2026-05-06 11:19 52.25798 2.88539 20942 ft 394 kts 60°
2026-05-06 11:19 52.26643 2.90900 20946 ft 394 kts 60°
2026-05-06 11:20 52.28024 2.94763 20943 ft 394 kts 60°
2026-05-06 11:20 52.29413 2.98653 20706 ft 397 kts 60°
2026-05-06 11:20 52.30798 3.02532 20420 ft 393 kts 60°
2026-05-06 11:20 52.32174 3.06395 19935 ft 394 kts 60°
2026-05-06 11:21 52.33544 3.10244 19381 ft 390 kts 60°
2026-05-06 11:21 52.34898 3.14058 18840 ft 385 kts 60°
2026-05-06 11:21 52.36236 3.17826 18318 ft 381 kts 60°
2026-05-06 11:21 52.37551 3.21546 17793 ft 375 kts 60°
2026-05-06 11:22 52.38845 3.25212 17311 ft 370 kts 60°
2026-05-06 11:22 52.40129 3.28856 16823 ft 368 kts 60°
2026-05-06 11:22 52.41407 3.32491 16334 ft 367 kts 59°
2026-05-06 11:22 52.42678 3.36109 15849 ft 365 kts 59°
2026-05-06 11:23 52.43940 3.39705 15347 ft 362 kts 59°
2026-05-06 11:23 52.45028 3.43346 14845 ft 361 kts 70°
2026-05-06 11:23 52.45655 3.47300 14395 ft 357 kts 78°
2026-05-06 11:23 52.46173 3.51278 13902 ft 355 kts 77°
2026-05-06 11:24 52.46716 3.55210 13473 ft 351 kts 76°
2026-05-06 11:24 52.47257 3.59085 13093 ft 348 kts 76°
2026-05-06 11:24 52.47796 3.62931 12837 ft 345 kts 76°
2026-05-06 11:24 52.48330 3.66766 12624 ft 345 kts 77°
2026-05-06 11:25 52.48868 3.70597 12504 ft 341 kts 76°
2026-05-06 11:25 52.49402 3.74410 12440 ft 347 kts 77°
2026-05-06 11:25 52.49948 3.78286 11907 ft 347 kts 76°
2026-05-06 11:25 52.50483 3.82069 11430 ft 342 kts 76°
2026-05-06 11:26 52.51015 3.85842 10950 ft 337 kts 76°
2026-05-06 11:26 52.51536 3.89563 10511 ft 332 kts 76°
2026-05-06 11:26 52.52047 3.93209 10121 ft 323 kts 76°
2026-05-06 11:26 52.52318 3.96778 9858 ft 310 kts 94°
2026-05-06 11:27 52.51799 4.00139 9625 ft 298 kts 110°
2026-05-06 11:27 52.51024 4.03202 9483 ft 283 kts 113°
2026-05-06 11:27 52.50267 4.06107 9373 ft 270 kts 112°
2026-05-06 11:27 52.49565 4.08897 9265 ft 259 kts 111°
2026-05-06 11:28 52.48898 4.11602 9156 ft 253 kts 111°
2026-05-06 11:28 52.48243 4.14279 9056 ft 253 kts 111°
2026-05-06 11:28 52.47582 4.16972 8936 ft 255 kts 111°
2026-05-06 11:28 52.46916 4.19670 8804 ft 255 kts 111°
2026-05-06 11:29 52.46253 4.22360 8690 ft 254 kts 111°
2026-05-06 11:29 52.45583 4.25078 8218 ft 262 kts 111°
2026-05-06 11:29 52.44888 4.27874 7586 ft 271 kts 111°
2026-05-06 11:29 52.44168 4.30788 6927 ft 279 kts 111°
2026-05-06 11:30 52.43453 4.33679 6848 ft 263 kts 110°
2026-05-06 11:30 52.42914 4.36429 6939 ft 246 kts 103°
2026-05-06 11:30 52.42479 4.39097 6805 ft 246 kts 113°
2026-05-06 11:30 52.41402 4.41239 6649 ft 246 kts 145°
2026-05-06 11:31 52.39813 4.42303 6390 ft 248 kts 163°
2026-05-06 11:31 52.38159 4.43077 6138 ft 246 kts 162°
2026-05-06 11:31 52.36518 4.43858 5857 ft 245 kts 162°
2026-05-06 11:31 52.34886 4.44630 5608 ft 243 kts 162°
2026-05-06 11:32 52.33257 4.45392 5334 ft 244 kts 162°
2026-05-06 11:32 52.32178 4.45890 5164 ft 242 kts 162°
2026-05-06 11:32 52.30584 4.46624 4948 ft 233 kts 162°
2026-05-06 11:32 52.29060 4.47308 4711 ft 222 kts 162°
2026-05-06 11:33 52.27595 4.47959 4424 ft 214 kts 162°
2026-05-06 11:33 52.26200 4.48575 4184 ft 201 kts 162°
2026-05-06 11:33 52.24863 4.49156 3908 ft 196 kts 162°
2026-05-06 11:33 52.23548 4.49720 3643 ft 196 kts 162°
2026-05-06 11:34 52.22221 4.50286 3396 ft 197 kts 162°
2026-05-06 11:34 52.20893 4.50858 3139 ft 197 kts 162°
2026-05-06 11:34 52.19563 4.51422 2889 ft 197 kts 162°
2026-05-06 11:34 52.18236 4.51961 2618 ft 196 kts 160°
2026-05-06 11:35 52.17137 4.53129 2356 ft 186 kts 123°
2026-05-06 11:35 52.16678 4.54987 2098 ft 177 kts 93°
2026-05-06 11:35 52.16989 4.56841 1830 ft 171 kts 50°
2026-05-06 11:35 52.17972 4.57846 1586 ft 167 kts 20°
2026-05-06 11:36 52.19048 4.58505 1552 ft 164 kts 22°
2026-05-06 11:36 52.20121 4.59228 1526 ft 167 kts 23°
2026-05-06 11:36 52.21199 4.59922 1485 ft 166 kts 22°
2026-05-06 11:36 52.22286 4.60618 1477 ft 169 kts 22°
2026-05-06 11:37 52.23376 4.61357 1444 ft 168 kts 28°
2026-05-06 11:37 52.24362 4.62360 1416 ft 167 kts 34°
2026-05-06 11:37 52.25127 4.63770 1386 ft 169 kts 59°
2026-05-06 11:37 52.25660 4.65406 1225 ft 157 kts 56°
2026-05-06 11:38 52.26262 4.66817 1003 ft 141 kts 53°
2026-05-06 11:38 52.26770 4.68115 813 ft 129 kts 56°
2026-05-06 11:38 52.27221 4.69330 638 ft 124 kts 55°
2026-05-06 11:38 52.27686 4.70512 485 ft 124 kts 56°
2026-05-06 11:39 52.28141 4.71704 314 ft 124 kts 56°
2026-05-06 11:39 52.28593 4.72884 148 ft 122 kts 56°
2026-05-06 11:39 52.29061 4.74108 8 ft 127 kts 56°
2026-05-06 11:39 52.29482 4.75210 -5 ft 98 kts 58°
2026-05-06 11:40 52.29786 4.75990 -5 ft 65 kts 58°
2026-05-06 11:40 52.29988 4.76493 -4 ft 39 kts 41°
2026-05-06 11:40 52.30133 4.76629 -4 ft 17 kts 28°
2026-05-06 11:40 52.30183 4.76672 -4 ft 8 kts 28°
2026-05-06 11:41 52.30194 4.76681 -4 ft 1 kts 27°
2026-05-06 11:41 52.30207 4.76693 -4 ft 4 kts 29°
2026-05-06 11:41 52.30236 4.76720 -4 ft 6 kts 29°
2026-05-06 11:41 52.30278 4.76746 -4 ft 7 kts 12°
2026-05-06 11:42 52.30295 4.76749 -4 ft 0 kts
2026-05-06 11:42 52.30297 4.76749 -4 ft 0 kts
2026-05-06 11:42 52.30302 4.76748 -4 ft 3 kts 355°
2026-05-06 11:42 52.30336 4.76719 -4 ft 8 kts 326°
2026-05-06 11:43 52.30331 4.76613 -4 ft 14 kts 236°
2026-05-06 11:43 52.30275 4.76473 -4 ft 16 kts 237°
2026-05-06 11:43 52.30221 4.76326 -4 ft 12 kts 237°